This demonstration page uses our WeatherBlox Daily Observations layout. Learn more.

Left ArrowRight Arrow

53.62937, 11.41316

Hourly Observations for December 28, 2018

Temp ( °F °C ) Dew Point ( °F °C ) Humidity (%) Winds ( mph kmh ) Pressure ( in mb ) Visibility ( mi km ) Precip ( " mm )
6:50 am 06:50 Mostly Cloudy 45 7 43 6 93 93 WSW 5 7 30.21 1023 5 8 N/A
7:20 am 07:20 Mostly Cloudy 45 7 43 6 93 93 WSW 6 9 30.21 1023 6 9 N/A
7:50 am 07:50 Mostly Cloudy 45 7 43 6 93 93 WSW 6 9 30.21 1023 30 48 N/A
8:20 am 08:20 Mostly Cloudy 45 7 43 6 93 93 WSW 6 9 30.21 1023 6 9 N/A
8:50 am 08:50 Mostly Cloudy 45 7 43 6 93 93 WSW 6 9 30.21 1023 6 9 N/A
9:20 am 09:20 Mostly Cloudy 45 7 43 6 93 93 WSW 6 9 30.24 1024 30 48 N/A
9:50 am 09:50 Mostly Cloudy 46 8 43 6 87 87 WSW 6 9 30.24 1024 30 48 N/A
10:20 am 10:20 Mostly Cloudy 46 8 43 6 87 87 W 6 9 30.24 1024 30 48 N/A
10:50 am 10:50 Mostly Cloudy 46 8 39 4 76 76 W 7 11 30.24 1024 30 48 N/A
11:20 am 11:20 Mostly Cloudy 45 7 37 3 76 76 W 6 9 30.24 1024 30 48 N/A
11:50 am 11:50 Mostly Cloudy 45 7 39 4 81 81 W 3 6 30.24 1024 30 48 N/A
12:20 pm 12:20 Mostly Cloudy 45 7 39 4 81 81 W 5 7 30.24 1024 30 48 N/A
12:50 pm 12:50 Mostly Cloudy 46 8 39 4 76 76 W 6 9 30.24 1024 30 48 N/A
1:20 pm 13:20 Mostly Cloudy 45 7 39 4 81 81 W 8 13 30.24 1024 30 48 N/A
1:50 pm 13:50 Mostly Cloudy 45 7 41 5 87 87 W 6 9 30.27 1025 30 48 N/A
2:20 pm 14:20 Mostly Cloudy 45 7 39 4 81 81 W 6 9 30.27 1025 30 48 N/A
2:50 pm 14:50 Mostly Cloudy 46 8 39 4 76 76 WSW 3 6 30.27 1025 30 48 N/A
3:20 pm 15:20 Mostly Cloudy 46 8 39 4 76 76 WSW 5 7 30.27 1025 30 48 N/A
3:50 pm 15:50 Mostly Cloudy 45 7 41 5 87 87 WSW 6 9 30.27 1025 30 48 N/A
4:20 pm 16:20 Mostly Cloudy 45 7 41 5 87 87 WSW 5 7 30.30 1026 30 48 N/A
4:50 pm 16:50 Mostly Cloudy 45 7 41 5 87 87 SW 6 9 30.30 1026 30 48 N/A
5:20 pm 17:20 Mostly Cloudy 45 7 43 6 93 93 SW 5 7 30.30 1026 30 48 N/A
5:50 pm 17:50 Mostly Cloudy 43 6 43 6 100 100 SW 2 4 30.30 1026 30 48 N/A
6:20 pm 18:20 Mostly Cloudy 43 6 43 6 100 100 SW 2 4 30.30 1026 5 8 N/A
6:50 pm 18:50 Mostly Cloudy 45 7 43 6 93 93 SSW 5 7 30.30 1026 5 8 N/A

Powered by AerisWeather